Location: Unspecified
(64.9000°N, 0.0000°E)
Time: 07:12:54
(UTC+00:00)

Transit 2A Rocket - Pass Details

Date: 20 June 2019
Orbit: 588 x 915 km, 66.7° (Epoch: 19 July)

Event Time Altitude Azimuth Distance (km) Brightness Sun altitude
Rises 10:16:06 0° 178° (S) 3,541 9.0 45.1°
Reaches altitude 10° 10:19:10 10° 164° (SSE) 2,588 8.7 45.3°
Maximum altitude 10:23:40 22° 116° (ESE) 1,828 8.1 45.6°
Drops below altitude 10° 10:28:01 10° 67° (ENE) 2,497 7.9 45.8°
Sets 10:30:54 0° 53° (NE) 3,386 8.3 46.0°
